Regional Weather Roundup
Issued by NWS Kansas City/Pleasant Hill, MO

Home | Current Version | Previous Version | Graphics & Text | Print | Product List | Glossary Off
Versions: 1 2 3 4 5 6 7 8 9 10 11 12 13 14 15 16 17 18 19 20 21 22 23 24 25 26 27 28 29 30 31 32 33 34 35 36 37 38 39 40 41 42 43 44 45 46 47 48 49 50

000
ASUS43 KEAX 200010
RWREAX

WEATHER ROUNDUP FOR EASTERN KANSAS AND NORTHWEST MISSOURI
NATIONAL WEATHER SERVICE KANSAS CITY/PLEASANT HILL MO
600 PM CST FRI DEC 19 2014

KSZ040-057-103>105-MOZ028-029-037-043-200100-
...KANSAS CITY METROPOLITAN AREA...

CITY           SKY/WX    TMP DP  RH WIND       PRES   REMARKS
K.C. INTL      CLOUDY    32  30  92 CALM      30.20S
6HR MIN TEMP:  31; 6HR MAX TEMP:  32; 6HR PCP: TRACE;

K.C. DOWNTOWN  CLOUDY    35  31  85 CALM      30.21S
6HR MIN TEMP:  33; 6HR MAX TEMP:  35;

LEES SUMMIT    CLOUDY    34  31  88 CALM      30.21R
6HR MIN TEMP:  32; 6HR MAX TEMP:  35;

OLATHE - IXD   CLOUDY    32  31  96 SE3       30.20S FOG
6HR MIN TEMP:  32; 6HR MAX TEMP:  33; 6HR PCP: TRACE;

OLATHE - OJC   CLOUDY    33  31  92 CALM      30.19S
6HR MIN TEMP:  32; 6HR MAX TEMP:  34;

LAWRENCE       CLOUDY    33  28  81 SW5       30.21S WCI  29

$$

MOZ001>008-011>017-020>025-030>033-038>040-044>046-053-054-200100-
...NORTHERN AND CENTRAL MISSOURI...

CITY           SKY/WX    TMP DP  RH WIND       PRES   REMARKS
ST. JOSEPH     CLOUDY    32  29  88 S7        30.21F WCI  26
6HR MIN TEMP:  31; 6HR MAX TEMP:  32;

MOSBY          CLOUDY    32  32 100 CALM      30.22S
WARRENSBURG    CLOUDY    34  32  93 CALM      30.22R FOG
WHITEMAN AFB   CLOUDY    36  34  92 SE3       30.21R
6HR MIN TEMP:  35; 6HR MAX TEMP:  37;

CLINTON        CLOUDY    37  36  93 SE3       30.22S
SEDALIA        CLOUDY    37  34  89 SE5       30.22R WCI  33
6HR MIN TEMP:  36; 6HR MAX TEMP:  37;

WARSAW         NOT AVBL
MARSHALL       CLOUDY    37  36  93 CALM      30.23R
CHILLICOTHE      N/A     34  31  88 CALM      30.23S
6HR MIN TEMP:  33; 6HR MAX TEMP:  35;

MOBERLY        CLOUDY    34  28  80 E6        30.23S HAZE    WCI  29
KIRKSVILLE     CLOUDY    32  30  92 SE6       30.23S FOG     WCI  26
6HR MIN TEMP:  31; 6HR MAX TEMP:  33;


$$

MOZ041-047>049-056>058-063>065-088>090-097-200100-
...EASTERN AND SOUTHERN MISSOURI...

CITY           SKY/WX    TMP DP  RH WIND       PRES   REMARKS
ST. LOUIS INTL NOT AVBL
SPIRIT OF STL  CLOUDY    36  30  79 CALM      30.26S HAZE
COLUMBIA       CLOUDY    35  32  88 E6        30.23S WCI  30
JEFFERSON CITY CLOUDY    37  32  82 E6        30.24S WCI  32
MEXICO         CLOUDY   N/A N/A N/A E5        30.24S HAZE
HANNIBAL       CLOUDY    34  27  75 CALM      30.25S
ROLLA          CLOUDY    35  31  85 E5        30.20S WCI  31
LEBANON        FOG       36  34  93 SE3       30.20S VSB 1
OSAGE BEACH    CLOUDY    37  32  81 CALM      30.22S
SPRINGFIELD    CLOUDY    39  36  89 S6        30.18S WCI  35
BRANSON        CLOUDY    37  36  93 CALM      30.19S FOG
NEVADA         CLOUDY    36  36 100 CALM      30.22R FOG
JOPLIN         CLOUDY    39  38  96 CALM      30.20S FOG
WEST PLAINS    CLOUDY    36  33  89 CALM      30.22R

$$

IAZ060-094-KSZ022-034>040-054-083-096-NEZ052-066-093-200100-
...KANSAS...SOUTHEAST NEBRASKA AND IOWA...

CITY           SKY/WX    TMP DP  RH WIND       PRES   REMARKS
TOPEKA         CLOUDY    33  27  78 SW6       30.21S WCI  28
6HR MIN TEMP:  32; 6HR MAX TEMP:  34;

MANHATTAN      CLOUDY    34  30  85 S7        30.18S WCI  28
EMPORIA        CLOUDY    32  29  88 SW5       30.19R WCI  27
CHANUTE        CLOUDY    35  34  96 NW3       30.21S FOG
WICHITA        CLOUDY    37  33  85 S6        30.18R WCI  32
OMAHA          CLOUDY    32  29  88 SE10      30.17S FOG     WCI  24
LINCOLN        CLOUDY    34  30  85 S8        30.15R WCI  27
FALLS CITY     CLOUDY    30  26  85 S3        30.19S
LAMONI         CLOUDY    31  29  92 S6        30.19S WCI  25
DES MOINES     CLOUDY    33  28  81 SE6       30.20F WCI  28

$$



USA.gov is the U.S. government's official web portal to all federal, state and local government web resources and services.